Starlink 32627

operational
NORAD ID: 62315 Int'l Des: 2024-239 Owner: SPXS Country: US Constellation: starlink
LEOCIRCULAR

Über Starlink 32627

Beschreibung wird geladen...

Live-Position

3D-Globus wird geladen...

Nächste Überflüge

Höhenverlauf

Altitude vs Time

uPlot chart will show altitude changes over time

Zweizeiliger Elementsatz

1 62315U 24239Q 26095.16577075 .00023987 00000-0 81929-3 0 9998
2 62315 53.1582 71.1691 0001145 115.8040 244.3079 15.30203721 73438
Epoch: 5. Apr. 2026 • Age: 16 hours

Aktueller Status

Höhe 476.5 km
Geschwindigkeit 7.63 km/s
Subsatellitenpunkt 29.13°N, 38.72°W
Startdatum 13. Dez. 2024
Alter 1.3 years
Typ internet

Technische Details

Klassifizierung Payload
Masse 730.00 kg
Trockenmasse 700.00 kg
Gesamtmasse 730.00 kg
Länge 0.30 m
Durchmesser 4.10 m
Spannweite 29.00 m
Form Box + pan
Hersteller SPXS
Bus-Typ Starlink V2M
Phasenstatus In Orbit
Besitzer/Staat SPXS/US

Große Konstellationen

Loading constellations...